Content
SEND FEEDBACK

Daily
Averages
Monthly
Summary
Canada

BRANTFORD, ONTARIO


Home > North America > Canada > Ontario
Elevation: 815 feet     Latitude: 43 08N     Longitude: 080 21W

WEATHER
 
SELECT A DAY
Number of Records: 128,974;   Date Range: 5/15/00 - 7/17/14
 
SHARE

PRINT THIS DATA

[ ← Previous Day ]
WEATHER ALMANAC - MARCH 28, 2013
[ Next Day → ]
[ °C ]   °F
Weather ElementAverageHighLow
Temperature35.8 °F41 °F (2:00 pm)31.3 °F (8:00 am)
Dewpoint30.2 °F31.8 °F (11:00 am)28.4 °F (9:00 pm)
Humidity79.9 %95 % (8:00 am)58 % (2:00 pm)
Barometer30.16 in30.23 in (10:00 pm)30.10 in (1:00 am)
Wind Speed6 mph10.4 mph (12:00 pm)
Weather ElementAverage
Wind DirectionWNW (300.4 °)

Weather ElementTotal
Precipitation---
Heating Degree Days28.9 (Base 65)
Averaged from 27 records on March 28, 2013
WEATHER CONDITIONS BREAKOUT
WIND DIRECTION BREAKOUT
WEATHER BY HOUR - MARCH 28, 2013
[ °C ]   °F
Local TimeTemperatureDewpointHumidityBarometerVisibilityWind DirectionWind SpeedGust SpeedPrecipitationEventsConditions
1:00 AM31.8 °F29.5 °F91 %30.10 inWNW (300°)4.6 mph
2:00 AM32.0 °F29.0 °F86 %30.10 inWest (280°)3.5 mph
2:00 AM31.6 °F29.5 °F92 %30.10 inWest (280°)3.5 mph
3:00 AM31.6 °F29.3 °F91 %30.10 inWNW (290°)4.6 mph
4:00 AM31.8 °F29.5 °F91 %30.10 inWNW (300°)5.8 mph
5:00 AM31.6 °F29.7 °F92 %30.10 inWNW (300°)5.8 mph
6:00 AM31.5 °F29.5 °F92 %30.11 inNW (310°)5.8 mph
7:00 AM31.5 °F29.5 °F92 %30.12 inWNW (300°)5.8 mph
8:00 AM33.0 °F30.0 °F84 %30.14 inWNW (300°)4.6 mph
8:00 AM31.3 °F30.0 °F95 %30.14 inWNW (300°)4.6 mph
9:00 AM33.3 °F30.7 °F90 %30.15 inNW (310°)4.6 mph
10:00 AM34.7 °F31.6 °F89 %30.16 inNW (310°)4.6 mph
11:00 AM36.9 °F31.8 °F82 %30.17 inNW (310°)8.1 mph
12:00 PM39.0 °F31.8 °F75 %30.18 inNW (320°)10.4 mph
1:00 PM40.1 °F31.3 °F71 %30.18 inNW (320°)10.4 mph
2:00 PM41.0 °F31.0 °F58 %30.18 inNW (320°)8.1 mph
2:00 PM41.0 °F31.3 °F68 %30.18 inNW (320°)8.1 mph
3:00 PM41.0 °F29.8 °F64 %30.17 inNW (320°)8.1 mph
4:00 PM40.6 °F31.6 °F70 %30.17 inWNW (300°)10.4 mph
5:00 PM41.0 °F30.9 °F67 %30.18 inWNW (300°)8.1 mph
6:00 PM40.1 °F30.9 °F70 %30.19 inWNW (300°)9.2 mph
7:00 PM39.4 °F31.1 °F72 %30.20 inNW (310°)9.2 mph
8:00 PM38.0 °F30.0 °F63 %30.21 inNW (320°)4.6 mph
8:00 PM37.8 °F29.8 °F73 %30.21 inNW (320°)4.6 mph
9:00 PM34.5 °F28.4 °F78 %30.22 inWNW (290°)2.3 mph
10:00 PM34.9 °F29.7 °F81 %30.23 inWSW (240°)2.3 mph
11:00 PM34.7 °F29.3 °F81 %30.22 inWSW (240°)1.2 mph
Hourly data recorded from CXDI, located miles away from Brantford, Ontario







STORIES FROM OUR PARTNERS